Terminal Aerodrome Forecast
Issued by NWS

Home | Current Version | Previous Version | Text Only | Print | Product List | Glossary On
Versions: 1 2 3 4 5 6 7 8 9 10 11 12 13 14 15
462
FTUS42 KTBW 120920 AAB
TAFLAL
TAF AMD
KLAL 120920Z 1209/1306 VRB02KT 5SM BR SKC
      TEMPO 1209/1213 1/4SM FG OVC002
     FM121400 23006KT P6SM SKC
     FM121800 24011KT P6SM SKC
     FM130200 25005KT P6SM SKC
      AMD NOT SKED TIL 121200=

USA.gov is the U.S. government's official web portal to all federal, state and local government web resources and services.